Wind_Speed
24 23 23 24 23 24 25 25 24 24 25 26 26 26 27 27 27 26 26 26 26 25 25 25 25 25 25 25 25 25 25 26 26 26 26 26 27 26 25 25 24 24 24 24
26 25 24 25 24 24 25 24 24 25 27 29 29 27 28 28 28 26 26 25 25 26 25 26 25 25 25 25 25 26 26 25 26 27 27 27 27 26 26 25 24 25 25 25
25 25 25 26 25 25 25 24 25 27 28 29 29 29 28 28 28 27 26 25 25 26 25 26 26 25 25 25 25 25 25 26 26 27 27 27 27 26 26 25 25 25 26 26
24 24 25 25 24 23 23 25 26 28 28 29 28 27 28 27 26 25 26 25 26 25 26 26 25 25 25 24 25 25 25 25 26 26 26 27 27 26 26 26 26 26 26 26
23 24 25 24 24 23 24 26 26 27 28 28 27 27 26 26 26 25 25 25 25 25 25 25 25 25 25 26 26 26 26 25 25 26 26 26 26 26 27 26 26 26 26 26
23 24 25 26 25 24 25 27 26 27 28 28 27 26 26 26 25 25 24 24 24 24 25 25 25 25 25 25 25 26 26 26 26 26 27 26 27 27 27 27 27 27 27 27
23 24 25 26 24 24 25 27 26 26 26 27 27 26 25 25 25 24 24 24 24 24 23 24 24 24 24 24 24 25 25 26 26 26 27 27 27 27 27 27 27 27 27 27
22 23 23 24 25 26 26 27 26 26 26 27 27 26 25 25 25 24 24 24 24 24 23 23 23 24 24 24 24 24 25 25 25 26 27 27 27 27 27 27 27 27 27 26
23 24 24 24 25 26 26 27 26 26 26 27 26 26 26 25 25 25 24 23 23 23 23 24 24 24 25 25 25 25 25 25 25 26 27 27 27 27 27 27 26 27 26 25
23 24 24 25 26 27 28 27 26 26 25 26 26 27 26 25 25 25 25 25 24 24 24 24 24 24 24 24 25 25 25 25 26 26 26 26 27 27 27 27 26 26 26 25
23 24 24 25 25 27 28 27 26 26 26 26 26 26 26 25 24 25 25 25 24 24 24 24 24 24 24 24 25 25 26 26 25 25 25 25 25 26 26 25 24 24 25 24
23 24 25 25 24 24 25 25 26 26 25 25 26 26 26 25 24 24 24 24 24 24 25 25 25 25 25 25 25 25 25 25 24 24 24 24 24 24 25 24 24 24 24 24
24 25 24 24 23 23 24 24 24 25 25 25 25 26 25 25 25 25 25 25 25 25 25 25 25 25 25 24 24 24 24 24 23 23 23 23 23 23 24 23 23 23 23 24
23 23 23 22 21 22 23 23 24 25 24 24 24 25 25 25 25 25 25 25 25 25 25 25 25 25 24 24 24 24 24 24 23 23 22 22 23 23 23 23 23 23 23 24
22 23 23 23 23 23 23 24 25 25 24 24 24 25 25 25 26 26 25 25 25 24 24 24 24 24 24 24 24 23 23 23 23 23 23 23 23 23 23 23 23 23 24 24
21 22 23 24 24 23 24 24 25 25 25 25 25 25 25 25 25 26 25 25 25 24 24 24 24 24 24 24 24 23 23 23 22 22 21 22 23 23 23 24 24 23 24 24
21 22 23 24 23 23 23 24 24 25 25 25 25 25 25 25 25 25 25 24 25 24 24 24 24 23 23 23 23 23 22 22 22 22 21 21 22 23 23 23 23 23 23 23
22 22 22 22 23 23 23 23 24 24 24 24 25 25 25 24 24 24 24 24 24 24 23 23 24 24 23 23 23 23 22 22 22 23 22 22 23 23 22 22 22 22 23 24
21 21 21 22 22 23 23 23 23 22 22 23 23 23 23 23 23 23 23 23 23 23 23 23 23 23 23 23 22 22 22 21 22 22 22 23 23 24 24 24 23 23 24 24
20 21 21 21 21 22 22 22 22 22 21 21 21 22 22 23 23 23 22 23 23 23 22 22 21 21 21 21 21 21 20 21 21 22 22 23 23 23 23 23 23 23 24 24
19 19 20 20 20 21 21 21 21 22 21 21 21 21 22 21 21 21 21 21 21 21 20 20 20 21 21 21 21 21 21 21 21 22 22 22 22 22 22 22 22 22 23 23
17 18 18 19 20 20 20 20 21 21 21 21 21 21 21 21 21 21 20 21 21 21 20 20 20 20 21 21 21 21 21 21 21 22 22 22 22 21 21 20 21 21 22 22
18 17 17 18 19 19 19 19 19 19 19 19 19 19 19 20 20 20 19 20 21 20 20 20 20 20 20 21 21 21 21 22 22 22 22 21 20 20 20 20 20 21 21 21
19 18 18 18 18 18 19 19 18 18 17 17 17 17 18 18 18 18 19 20 21 21 21 21 21 21 21 21 22 22 22 22 22 22 21 21 21 20 20 20 21 21 21 21
19 19 19 18 18 18 18 18 18 17 17 17 17 17 18 18 17 18 18 19 20 20 20 20 21 22 22 22 22 22 22 22 22 22 21 21 21 21 22 21 21 21 22 22
20 20 19 19 19 19 19 18 18 17 17 17 17 17 17 17 18 18 18 19 19 20 20 20 20 21 21 21 21 21 21 21 21 22 21 21 21 21 22 22 22 22 23 23
20 20 19 19 19 18 18 18 18 18 18 17 17 17 18 18 18 18 18 18 18 18 19 19 20 20 20 20 20 20 20 20 20 20 19 19 20 21 21 22 22 22 23 24
Wind_Direction
244 244 247 249 249 247 248 251 253 256 258 264 269 272 272 273 273 274 271 272 272 270 271 270 270 271 271 269 267 268 268 268 269 270 270 271 273 274 276 279 281 284 283 284
246 243 246 248 248 246 248 250 254 259 261 263 268 272 273 273 273 275 273 271 270 269 269 268 270 271 271 269 268 267 266 267 268 269 270 272 273 275 275 277 280 283 283 282
248 244 247 248 250 247 248 249 253 258 262 263 265 269 271 274 276 273 272 270 270 271 270 270 271 270 269 268 268 267 266 267 268 269 270 272 274 275 275 277 280 282 284 282
249 246 248 250 248 248 251 253 256 258 260 262 266 269 270 273 275 273 271 270 270 270 271 271 270 270 269 269 268 267 267 268 268 268 270 272 273 274 275 276 279 281 282 283
250 247 250 249 247 246 248 253 256 258 258 263 266 268 269 272 275 273 272 271 272 271 270 270 269 269 269 269 269 268 268 268 268 267 271 272 273 275 275 275 277 280 280 280
251 248 249 249 250 251 254 255 256 257 259 263 266 268 270 273 275 274 273 271 272 272 271 271 270 269 271 270 269 269 268 268 268 269 271 272 274 276 276 275 276 277 279 280
253 251 250 249 251 254 255 256 258 261 263 265 268 270 272 273 275 274 271 270 270 271 272 270 269 269 272 273 272 271 270 269 269 270 272 273 275 276 275 274 276 278 280 280
253 252 250 250 250 251 254 258 259 262 265 266 266 268 270 271 271 271 271 271 271 272 272 271 269 269 270 272 273 273 272 271 271 273 274 274 275 275 275 274 276 277 278 279
253 250 250 253 251 253 256 259 259 261 263 264 264 267 269 269 269 270 271 271 271 271 271 272 271 268 267 270 271 272 272 273 273 274 274 274 275 275 275 275 275 276 277 277
251 248 248 254 252 253 258 259 257 260 263 265 264 266 269 268 268 270 270 270 271 271 271 272 271 269 268 269 269 271 271 272 273 274 275 275 275 275 275 274 275 276 277 276
254 251 253 254 254 256 259 260 261 260 262 263 264 265 267 267 267 268 270 272 272 273 272 270 270 270 269 269 270 270 271 271 273 275 275 276 275 275 275 274 275 276 277 277
254 254 256 255 255 259 260 260 261 261 264 264 263 265 266 268 268 269 271 273 273 272 272 271 270 271 272 272 271 272 272 272 272 273 274 275 275 276 275 274 275 275 276 278
252 252 252 254 259 259 260 262 262 262 265 265 264 265 267 269 269 270 271 273 273 272 272 272 272 272 273 273 273 272 272 273 274 273 275 275 275 277 278 278 277 276 275 276
253 252 252 255 260 257 258 259 262 265 267 268 268 267 267 268 270 271 272 273 273 271 270 271 271 270 269 270 272 273 272 274 274 273 273 274 276 277 278 278 277 276 276 276
257 257 257 256 260 261 261 262 264 267 268 268 269 269 269 269 270 271 272 272 273 272 271 271 270 269 268 269 271 272 272 273 274 275 275 275 275 275 276 277 277 276 277 278
259 260 260 260 262 263 265 265 265 267 269 270 270 271 271 271 271 270 270 270 271 271 271 271 270 270 270 271 271 272 273 273 274 276 278 276 276 277 277 278 278 277 278 279
262 264 262 261 262 263 265 266 266 267 268 269 270 271 271 271 271 270 269 270 269 269 270 271 270 269 270 271 271 272 273 274 275 275 277 279 279 279 279 279 278 279 280 282
267 267 264 261 262 264 267 267 267 268 268 269 269 270 270 271 271 271 270 270 269 267 268 269 268 270 270 270 271 271 272 274 274 275 277 279 279 279 280 281 280 278 281 283
267 265 264 261 262 263 265 266 268 270 269 268 269 269 269 269 269 269 269 268 269 268 268 269 269 269 269 270 272 271 271 272 273 274 276 278 279 280 279 280 278 278 280 281
266 265 265 264 265 265 264 265 267 270 272 272 272 272 270 269 268 268 268 268 268 269 267 268 268 266 267 270 270 271 272 272 274 276 276 278 279 280 280 279 278 277 279 280
270 268 266 265 265 265 265 266 269 271 273 274 276 275 273 272 271 269 267 267 268 267 267 266 266 267 267 269 269 271 273 275 277 277 277 277 277 279 279 278 278 279 279 281
271 269 267 264 263 265 264 268 270 272 272 272 274 274 273 271 271 270 268 267 267 265 265 266 267 267 267 268 271 272 275 277 279 280 280 279 278 278 279 278 278 278 279 281
271 271 267 263 263 264 266 271 274 273 271 271 272 273 272 271 271 270 268 267 267 266 267 268 269 268 268 270 272 273 275 277 279 280 281 280 279 280 280 279 279 280 280 280
269 269 267 265 266 267 268 271 274 273 273 273 274 275 275 275 273 271 270 268 265 266 268 269 269 269 270 271 273 273 275 277 278 278 279 278 278 279 280 280 280 281 281 282
264 265 267 266 268 269 271 272 273 273 274 275 277 279 278 276 274 273 273 271 268 267 267 268 269 271 272 272 273 275 276 277 276 276 276 276 276 277 279 278 279 280 280 282
263 264 265 266 269 270 270 272 271 269 270 272 274 274 276 277 276 275 276 274 271 268 268 269 270 272 273 275 276 276 275 275 274 275 275 274 275 278 279 278 279 279 280 282
263 263 263 262 265 267 268 269 270 270 271 271 270 271 274 275 276 277 278 276 273 270 270 271 273 276 277 278 278 277 275 275 275 275 274 275 277 279 281 281 282 282 280 281
Height
5783 5785 5787 5788 5789 5792 5793 5794 5796 5797 5797 5795 5794 5794 5793 5794 5793 5792 5792 5793 5793 5793 5794 5794 5794 5793 5793 5793 5794 5795 5795 5796 5796 5797 5797 5797 5797 5797 5797 5797 5797 5797 5796 5795
5776 5779 5780 5781 5782 5784 5787 5789 5790 5791 5791 5790 5788 5787 5787 5787 5786 5786 5785 5786 5786 5786 5787 5787 5787 5787 5787 5787 5787 5788 5789 5789 5790 5790 5790 5790 5790 5791 5791 5791 5791 5790 5790 5789
5770 5772 5773 5775 5776 5778 5780 5781 5783 5784 5784 5783 5782 5781 5781 5781 5780 5779 5779 5779 5780 5780 5780 5780 5780 5780 5780 5780 5780 5781 5782 5782 5783 5783 5784 5784 5784 5784 5784 5784 5784 5784 5783 5782
5763 5765 5766 5770 5769 5771 5773 5774 5775 5775 5775 5775 5774 5774 5774 5773 5772 5773 5773 5773 5773 5773 5773 5773 5774 5774 5773 5774 5774 5774 5774 5775 5775 5776 5777 5777 5777 5777 5777 5777 5777 5777 5776 5775
5756 5758 5760 5761 5762 5764 5765 5766 5767 5768 5768 5767 5768 5768 5768 5768 5767 5767 5766 5766 5766 5766 5766 5766 5767 5767 5767 5767 5767 5767 5767 5768 5768 5769 5770 5770 5770 5770 5770 5770 5770 5770 5769 5768
5750 5751 5753 5755 5756 5757 5759 5758 5759 5760 5760 5761 5762 5763 5763 5762 5761 5761 5760 5759 5760 5760 5760 5760 5760 5760 5760 5760 5760 5760 5760 5760 5761 5762 5762 5763 5763 5763 5763 5763 5763 5762 5762 5760
5743 5744 5745 5747 5749 5751 5752 5752 5752 5753 5754 5755 5755 5756 5756 5755 5755 5755 5754 5754 5754 5754 5754 5754 5754 5754 5754 5754 5753 5753 5753 5753 5754 5754 5755 5755 5756 5756 5756 5755 5755 5755 5754 5753
5737 5737 5740 5740 5742 5744 5744 5744 5745 5746 5747 5748 5748 5749 5749 5749 5749 5749 5748 5748 5748 5748 5748 5748 5748 5748 5748 5747 5747 5747 5747 5747 5747 5747 5748 5748 5748 5748 5748 5748 5748 5747 5747 5747
5731 5733 5732 5733 5734 5736 5737 5738 5739 5740 5741 5741 5742 5742 5742 5742 5742 5742 5742 5742 5741 5741 5741 5741 5741 5741 5741 5741 5740 5740 5740 5740 5740 5740 5740 5741 5741 5741 5741 5740 5740 5740 5740 5740
5723 5724 5725 5726 5727 5728 5729 5730 5731 5733 5734 5734 5734 5735 5735 5735 5735 5735 5735 5735 5735 5735 5735 5734 5734 5734 5734 5734 5734 5734 5734 5734 5733 5733 5733 5733 5733 5733 5733 5733 5733 5733 5733 5733
5717 5717 5718 5719 5721 5722 5723 5724 5724 5725 5726 5726 5727 5728 5728 5728 5728 5728 5728 5728 5727 5727 5727 5727 5727 5727 5727 5727 5727 5727 5727 5727 5726 5726 5726 5726 5726 5726 5725 5725 5725 5725 5726 5726
5711 5711 5712 5713 5714 5716 5716 5717 5718 5718 5718 5719 5720 5720 5721 5721 5721 5721 5721 5721 5721 5720 5720 5720 5720 5720 5720 5720 5720 5719 5719 5719 5719 5719 5719 5719 5718 5718 5718 5718 5718 5717 5718 5718
5704 5705 5706 5708 5708 5708 5709 5710 5710 5711 5712 5712 5713 5713 5713 5714 5714 5714 5714 5714 5714 5713 5713 5713 5713 5713 5713 5713 5713 5712 5712 5712 5712 5712 5712 5712 5711 5711 5711 5711 5711 5710 5711 5711
5698 5699 5700 5701 5701 5701 5702 5703 5704 5704 5705 5705 5705 5706 5706 5707 5707 5707 5707 5706 5706 5706 5706 5705 5706 5706 5706 5706 5706 5706 5705 5705 5705 5705 5705 5705 5704 5704 5704 5704 5704 5703 5703 5703
5692 5693 5694 5695 5695 5695 5696 5696 5697 5697 5698 5698 5699 5699 5699 5699 5699 5699 5699 5699 5699 5699 5699 5699 5699 5699 5699 5699 5699 5699 5698 5699 5699 5698 5698 5698 5697 5697 5697 5697 5697 5696 5696 5696
5686 5687 5687 5688 5689 5689 5689 5690 5690 5691 5691 5691 5691 5691 5692 5692 5692 5692 5692 5692 5692 5692 5692 5692 5692 5692 5692 5692 5692 5692 5692 5692 5692 5691 5691 5691 5691 5690 5690 5690 5689 5689 5689 5688
5680 5681 5681 5682 5682 5683 5683 5683 5683 5683 5684 5684 5684 5684 5684 5684 5684 5684 5684 5685 5685 5685 5685 5685 5685 5685 5685 5685 5685 5685 5685 5685 5686 5685 5685 5685 5684 5684 5683 5683 5682 5681 5681 5681
5673 5674 5675 5675 5676 5676 5676 5676 5676 5676 5676 5677 5677 5677 5677 5677 5677 5677 5677 5678 5677 5678 5678 5678 5678 5678 5678 5678 5679 5679 5679 5679 5679 5679 5678 5678 5677 5677 5677 5676 5675 5674 5674 5673
5667 5668 5668 5669 5669 5669 5670 5670 5670 5670 5670 5670 5670 5670 5670 5670 5670 5670 5670 5671 5671 5671 5671 5671 5671 5671 5672 5672 5672 5672 5672 5672 5672 5672 5671 5671 5671 5670 5669 5669 5668 5668 5667 5666
5661 5662 5662 5662 5663 5663 5663 5663 5663 5663 5663 5663 5663 5663 5663 5663 5663 5663 5663 5664 5664 5664 5664 5665 5664 5665 5665 5665 5666 5665 5665 5665 5665 5665 5665 5664 5663 5662 5661 5661 5660 5660 5659 5658
5655 5655 5656 5656 5657 5657 5657 5657 5657 5657 5657 5656 5656 5656 5656 5656 5656 5656 5656 5657 5657 5657 5657 5658 5658 5658 5659 5659 5659 5659 5659 5659 5659 5658 5658 5657 5656 5655 5654 5653 5652 5652 5651 5650
5649 5650 5650 5650 5651 5651 5651 5651 5651 5650 5650 5650 5650 5650 5649 5649 5649 5649 5649 5650 5650 5650 5651 5651 5651 5652 5652 5652 5653 5653 5653 5652 5652 5651 5651 5650 5649 5648 5647 5647 5646 5645 5645 5644
5644 5644 5644 5645 5645 5645 5645 5645 5645 5644 5644 5644 5644 5643 5643 5643 5643 5643 5643 5643 5643 5644 5644 5644 5645 5645 5645 5646 5646 5646 5646 5646 5645 5644 5644 5643 5643 5642 5641 5640 5640 5639 5638 5638
5638 5638 5639 5639 5639 5639 5639 5639 5639 5638 5638 5638 5638 5637 5637 5637 5636 5636 5636 5637 5637 5637 5637 5638 5638 5638 5639 5639 5639 5639 5639 5638 5638 5637 5637 5636 5636 5635 5635 5634 5633 5633 5632 5631
5632 5632 5633 5633 5633 5633 5633 5633 5633 5632 5632 5632 5632 5631 5631 5631 5631 5631 5630 5630 5630 5630 5630 5631 5631 5631 5631 5631 5631 5631 5631 5631 5630 5630 5630 5629 5629 5629 5628 5627 5627 5626 5625 5624
5626 5626 5626 5627 5627 5627 5627 5626 5627 5626 5626 5626 5626 5626 5625 5625 5625 5624 5624 5624 5624 5623 5623 5624 5624 5624 5624 5624 5623 5623 5623 5623 5623 5623 5622 5622 5622 5622 5621 5620 5619 5619 5618 5617
5619 5619 5620 5620 5620 5620 5620 5620 5621 5621 5621 5620 5620 5620 5620 5619 5619 5618 5618 5618 5617 5617 5617 5617 5617 5617 5617 5616 5616 5616 5616 5615 5615 5615 5615 5615 5615 5614 5613 5613 5612 5611 5610 5609